Regional Weather Roundup
Issued by NWS

Home | Current Version | Previous Version | Graphics & Text | Print | Product List | Glossary On
Versions: 1 2 3 4 5 6 7 8 9 10 11 12 13 14 15 16 17 18 19 20 21 22 23 24 25 26 27 28 29 30 31 32 33 34 35 36 37 38 39 40 41 42 43 44 45 46 47 48 49 50
000
ASUS45 KPSR 032110
RWRAZ

ARIZONA REGIONAL HOURLY WEATHER ROUNDUP
NATIONAL WEATHER SERVICE PHOENIX AZ
200 PM MST SUN MAY 03 2015

NOTE: FAIR INDICATES FEW OR NO CLOUDS BELOW 12,000 FEET WITH NO
SIGNIFICANT WEATHER AND/OR OBSTRUCTIONS TO VISIBILITY.

AZZ001>003-036-032200-
NORTHWEST ARIZONA

CITY           SKY/WX    TMP DP  RH WIND       PRES   REMARKS
BULLHEAD CITY  MOSUNNY   91  39  16 S14G25    29.75F
KINGMAN        MOSUNNY   84  28  13 SW22G33   29.89F
$$

AZZ004>008-015-016-018-032200-
NORTH CENTRAL ARIZONA

CITY           SKY/WX    TMP DP  RH WIND       PRES   REMARKS
GRAND CANYON   CLOUDY    62  33  33 S13G18    30.09F
WILLIAMS       PTSUNNY   64  34  32 S16G24    30.14S
PRESCOTT       MOSUNNY   73  33  23 S13G26    29.99F
FLAGSTAFF      MOSUNNY   64  30  27 SW14G25   30.09F
PAYSON         MOSUNNY   73  36  25 S10G23    30.02F
PAGE           PTSUNNY   76  35  22 SW10G21   29.95F
$$

AZZ009>014-017-032200-
NORTHEAST ARIZONA

CITY           SKY/WX    TMP DP  RH WIND       PRES   REMARKS
WINSLOW        PTSUNNY   73  40  30 N13G20    29.99F
SAINT JOHNS    PTSUNNY   67  32  27 S31G44    30.03R
WINDOW ROCK    PTSUNNY   66  32  28 E3        30.05F
SHOW LOW       SUNNY     70  30  23 SW18G24   30.05F
$$

AZZ023-032200-
GREATER PHOENIX AREA

CITY           SKY/WX    TMP DP  RH WIND       PRES   REMARKS
PHOENIX        MOSUNNY   93  40  15 VRB7G21   29.77F
BUCKEYE        SUNNY     91  41  17 S3        29.78F
GLENDALE       MOSUNNY   91  41  17 VRB3      29.79F
DEER VALLEY    SUNNY     89  40  17 S7G16     29.80F
SCOTTSDALE     SUNNY     89  40  17 VRB5      29.82F
MESA-FALCON    MOSUNNY   93  39  15 MISG      29.80F
MESA-GATEWAY   MOSUNNY   90  39  17 SW12G21   29.82F
CHANDLER       PTSUNNY   91  39  16 S21       29.79F
$$

AZZ027-028-032200-
SOUTHWEST MARICOPA COUNTY AND PINAL COUNTY

CITY           SKY/WX    TMP DP  RH WIND       PRES   REMARKS
CASA GRANDE    SUNNY     90  41  18 S8        29.79F
$$

AZZ503-504-507>509-032200-
SOUTHEAST ARIZONA

CITY           SKY/WX    TMP DP  RH WIND       PRES   REMARKS
TUCSON         SUNNY     89  31  12 SW16      29.87F
RYAN FIELD       N/A     88  32  13 SE6       29.86
NOGALES        PTSUNNY   83  36  18 S8G21     29.94F
DOUGLAS        PTSUNNY   81  31  16 S10G22    29.95F
SAFFORD        MOSUNNY   84  37  18 VRB6      29.86F
$$

AZZ020-021-025-026-031-032200-
SOUTHWEST ARIZONA

CITY           SKY/WX    TMP DP  RH WIND       PRES   REMARKS
YUMA           SUNNY     91  50  24 S10G21    29.76F
$$

CAZ031-033-041-043-047-048-061-032200-
SOUTHERN CALIFORNIA

CITY           SKY/WX    TMP DP  RH WIND       PRES   REMARKS
DOWNTOWN L.A.  SUNNY     70  54  56 VRB3      29.90F
L.A. AIRPORT   SUNNY     64  52  64 W18       29.93F
SAN DIEGO      MOSUNNY   68  52  56 W13G20    29.94F
BURBANK        SUNNY     73  52  47 S9        29.89F
ONTARIO        MOSUNNY   77  49  37 SW9G21    29.89F
RIVERSIDE      SUNNY     78  48  34 W12       29.88F
PALM SPRINGS   SUNNY     93  30  10 E7        29.76F
EL CENTRO NAS  SUNNY     91  43  18 VRB6      29.75F
IMPERIAL       SUNNY     91  45  20 W8G17     29.73F
BLYTHE         SUNNY     92  48  22 S15G24    29.76F
NEEDLES        SUNNY     93  34  12 S10G21    29.76F
$$

NVZ020-UTZ003-032200-
SOUTHERN NEVADA-UTAH

CITY           SKY/WX    TMP DP  RH WIND       PRES   REMARKS
LAS VEGAS      MOSUNNY   88  34  14 S12G20    29.75F
SALT LAKE CITY CLOUDY    71  37  28 E10       29.89R
$$

NMZ009-TXZ055-032200-
NEW MEXICO-WEST TEXAS

CITY           SKY/WX    TMP DP  RH WIND       PRES   REMARKS
ALBUQUERQUE    PTSUNNY   75  31  19 W21G28    29.99F
EL PASO        PTSUNNY   86  32  14 W12       29.90F
$$


........................KEY........................
SKY/WX - SKY CONDITION/WEATHER
TMP    - TEMPERATURE IN FAHRENHEIT
DP     - DEW POINT IN FAHRENHEIT
RH     - RELATIVE HUMIDITY IN PERCENT
WIND   - DIRECTION AND SPEED IN MILES PER HOUR (MPH)
VRB    - VARIABLE WIND DIRECTION
PRES   - MEAN SEA LEVEL PRESSURE IN INCHES OF MERCURY
         F - FALLING PRESSURE   R - RISING PRESSURE
         S - STEADY PRESSURE
VSB    - VISIBILITY IN MILES
HX     - HEAT INDEX IN FAHRENHEIT
WCI    - WIND CHILL INDEX IN FAHRENHEIT
TC     - TEMPERATURE IN CELSIUS WHICH IS ALSO KNOWN AS
         TEMPERATURE IN CENTIGRADE
AFB    - AIR FORCE BASE
         LUKE AFB IS LUKE AIR FORCE BASE
         DAVIS-MONTHAN IS DAVIS-MONTHAN AIR FORCE BASE
NAS    - NAVAL AIR STATION
         EL CENTRO NAS IS EL CENTRO NAVAL AIR STATION
N/A    - NOT AVAILABLE




USA.gov is the U.S. government's official web portal to all federal, state and local government web resources and services.